Location: Unspecified
(41.5516°N, 88.1098°W)
Time: 03:51:46
(UTC-06:00)

Cosmos 2058 - Visible Passes

Search period start: 20 January 2017 00:00
Search period end: 30 January 2017 00:00
Orbit: 563 x 587 km, 82.5° (Epoch: 19 January)

Date Brightness Start Highest point End Pass type
(mag) Time Alt. Az. Time Alt. Az. Time Alt. Az.
20 Jan 5.4 04:24:24 14° NE 04:26:34 20° ENE 04:29:36 10° ESE visible
20 Jan 3.6 06:00:42 15° NW 06:03:33 31° W 06:07:13 10° SSW visible
20 Jan 3.3 18:23:38 10° SSW 18:27:41 62° W 18:31:46 10° N visible
21 Jan 5.0 04:28:54 22° NE 04:30:07 26° ENE 04:33:36 10° SE visible
21 Jan 4.0 06:05:12 18° NW 06:06:57 23° W 06:10:15 10° SW visible
21 Jan 4.0 18:27:15 10° SSW 18:31:11 45° WNW 18:35:09 10° N visible
22 Jan 4.5 04:33:29 33° ENE 04:33:40 34° ENE 04:37:26 10° SE visible
22 Jan 4.3 06:09:48 17° WNW 06:10:19 18° W 06:13:06 10° SW visible
22 Jan 4.6 18:30:59 10° SW 18:34:42 33° WNW 18:38:27 10° N visible
23 Jan 4.2 04:38:10 37° ESE 04:38:10 37° ESE 04:41:10 10° SSE visible
23 Jan 4.8 06:14:29 13° W 06:14:29 13° W 06:15:42 10° WSW visible
23 Jan 5.1 18:34:49 10° SW 18:38:14 25° WNW 18:41:41 10° NNW visible
24 Jan 4.6 04:42:53 26° SSE 04:42:53 26° SSE 04:44:47 10° SSE visible
24 Jan 5.6 18:38:48 10° WSW 18:41:48 19° WNW 18:44:48 10° NNW visible
25 Jan 5.3 04:47:38 14° S 04:47:38 14° S 04:48:19 10° S visible
25 Jan 5.9 18:43:01 10° WSW 18:45:22 15° WNW 18:47:44 10° NW visible
26 Jan 6.1 18:47:42 10° W 18:48:58 11° WNW 18:50:14 10° NW visible
